Regional Weather Roundup
Issued by NWS

Home | Current Version | Previous Version | Graphics & Text | Print | Product List | Glossary On
Versions: 1 2 3 4 5 6 7 8 9 10 11 12 13 14 15 16 17 18 19 20 21 22 23 24 25 26 27 28 29 30 31 32 33 34 35 36 37 38 39 40 41 42 43 44 45 46 47 48 49 50
000
ASUS45 KPSR 292300
RWRAZ

ARIZONA HOURLY REGIONAL WEATHER ROUNDUP
NATIONAL WEATHER SERVICE PHOENIX AZ
400 PM MST SAT AUG 29 2015

NOTE: FAIR INDICATES FEW OR NO CLOUDS BELOW 12,000 FEET WITH NO
SIGNIFICANT WEATHER AND/OR OBSTRUCTIONS TO VISIBILITY.

AZZ001>003-036-300000-
NORTHWEST ARIZONA

CITY           SKY/WX    TMP DP  RH WIND       PRES   REMARKS
KINGMAN        PTSUNNY  100  48  17 S14G22    29.97F
$$

AZZ004>008-015-016-018-300000-
NORTH CENTRAL ARIZONA

CITY           SKY/WX    TMP DP  RH WIND       PRES   REMARKS
GRAND CANYON   PTSUNNY   82  42  24 W10G16    30.25F
WILLIAMS       FAIR      79  45  29 SW13G20   30.32S
PRESCOTT       PTSUNNY   78  55  44 SW8       30.15F
FLAGSTAFF      NOT AVBL
PAYSON         FAIR      86  52  30 N9G15     30.16S
PAGE           FAIR      99  37  11 N8        30.02F
$$

AZZ009>014-017-300000-
NORTHEAST ARIZONA

CITY           SKY/WX    TMP DP  RH WIND       PRES   REMARKS
WINSLOW        NOT AVBL
SAINT JOHNS    FAIR      85  48  27 SE12      30.20S
WINDOW ROCK    FAIR      83  39  21 MISG      30.26F
SHOW LOW       FAIR      82  37  20 SW6       30.25F
$$

AZZ023-300000-
GREATER PHOENIX AREA

CITY           SKY/WX    TMP DP  RH WIND       PRES   REMARKS
PHOENIX        FAIR     110  55  16 SW8       29.75F HX 109
GLENDALE       MOSUNNY  111  54  15 SW7       29.77F HX 109
LUKE AFB       FAIR     109  54  16 W7        29.74F HX 107
DEER VALLEY    FAIR     106  54  17 SW6       29.78F HX 104
SCOTTSDALE     FAIR     107  52  16 S5        29.80F HX 105
MESA-FALCON    MOSUNNY  109  54  16 S12       29.78F HX 108
MESA-GATEWAY   MOSUNNY  108  55  18 SW9       29.81F HX 106
CHANDLER       PTSUNNY  108  54  16 W7        29.77F HX 106
$$

AZZ027-028-300000-
SOUTHWEST MARICOPA COUNTY AND PINAL COUNTY

CITY           SKY/WX    TMP DP  RH WIND       PRES   REMARKS
CASA GRANDE    FAIR     108  55  18 SW6       29.79F HX 106
GILA BEND      FAIR     107  57  19 SW8       29.75F HX 106
$$

AZZ503-504-507>509-300000-
SOUTHEAST ARIZONA

CITY           SKY/WX    TMP DP  RH WIND       PRES   REMARKS
TUCSON         FAIR     102  52  18 S21       29.93R THUNDER
DAVIS-MONTHAN  FAIR      97  57  26 SE24G40   29.91R SQUALL
RYAN FIELD     SUNNY    102  54  19 W6        29.89F HX 100
NOGALES        FAIR      89  58  34 NW5       30.05S
SIERRA VISTA   FAIR      84  55  36 SE9       30.13R
SAFFORD        FAIR      99  51  19 W8        29.94F
$$

AZZ020-021-025-026-031-300000-
SOUTHWEST ARIZONA

CITY           SKY/WX    TMP DP  RH WIND       PRES   REMARKS
YUMA           FAIR     113  59  17 SW9       29.70F HX 114
$$

CAZ031-033-041-043-047-048-061-300000-
SOUTHERN CALIFORNIA

CITY           SKY/WX    TMP DP  RH WIND       PRES   REMARKS
DOWNTOWN L.A.  FAIR      88  60  38 W5        29.84F
L.A. AIRPORT   FAIR      82  66  58 W18       29.86F
SAN DIEGO      FAIR      84  68  58 NW8       29.86F
BURBANK        FAIR      96  53  23 SE6       29.85F
ONTARIO        FAIR      99  53  21 SW13G20   29.85F
RIVERSIDE      FAIR     101  51  18 W15G22    29.84F
PALM SPRINGS   FAIR     113  46  10 N14G25    29.73F HX 108
EL CENTRO NAS  FAIR     113  49  12 SE8       29.68F HX 109
IMPERIAL       FAIR     115  52  12 S12G18    29.67F HX 112
BLYTHE         FAIR     112  53  14 SW15G22   29.70F HX 110
$$

NVZ020-UTZ003-300000-
SOUTHERN NEVADA-UTAH

CITY           SKY/WX    TMP DP  RH WIND       PRES   REMARKS
LAS VEGAS      NOT AVBL
SALT LAKE CITY PTSUNNY   95  39  14 SE20G26   29.93F
$$

NMZ009-TXZ055-300000-
NEW MEXICO-WEST TEXAS

CITY           SKY/WX    TMP DP  RH WIND       PRES   REMARKS
ALBUQUERQUE    PTSUNNY   84  42  22 SE17      30.19F
EL PASO        FAIR      91  54  28 E9        30.05F
$$


........................KEY........................
SKY/WX - SKY CONDITION/WEATHER
TMP    - TEMPERATURE IN FAHRENHEIT
DP     - DEW POINT IN FAHRENHEIT
RH     - RELATIVE HUMIDITY IN PERCENT
WIND   - DIRECTION AND SPEED IN MILES PER HOUR (MPH)
VRB    - VARIABLE WIND DIRECTION
PRES   - MEAN SEA LEVEL PRESSURE IN INCHES OF MERCURY
         F - FALLING PRESSURE   R - RISING PRESSURE
         S - STEADY PRESSURE
VSB    - VISIBILITY IN MILES
HX     - HEAT INDEX IN FAHRENHEIT
WCI    - WIND CHILL INDEX IN FAHRENHEIT
TC     - TEMPERATURE IN CELSIUS WHICH IS ALSO KNOWN AS
         TEMPERATURE IN CENTIGRADE
AFB    - AIR FORCE BASE
         LUKE AFB IS LUKE AIR FORCE BASE
         DAVIS-MONTHAN IS DAVIS-MONTHAN AIR FORCE BASE
NAS    - NAVAL AIR STATION
         EL CENTRO NAS IS EL CENTRO NAVAL AIR STATION
N/A    - NOT AVAILABLE




USA.gov is the U.S. government's official web portal to all federal, state and local government web resources and services.